Location: Austin
(30.3000°N, 97.7500°W)
Time: 10:56:59
(UTC-05:00)

Cosmos 540 Rocket - Pass Details

Date: 26 May 2023
Orbit: 739 x 752 km, 74.1° (Epoch: 31 May)

Event Time Altitude Azimuth Distance (km) Brightness Sun altitude
Rises 22:47:10 0° 353° (N) 3,201 7.5 -25.6°
Reaches altitude 10° 22:49:41 10° 2° (N) 2,275 6.5 -25.9°
Enters shadow 22:53:47 37° 51° (NE) 1,166 4.4 -26.5°
